Location: Miles
(41.4492°N, 81.6087°W)
Time: 08:56:23
(UTC+00:00)

Courier 1B - Pass Details

Date: 20 September 2024
Orbit: 962 x 1208 km, 28.3° (Epoch: 11 October)

Event Time Altitude Azimuth Distance (km) Brightness Sun altitude
Rises 15:52:52 0° 203° (SSW) 3,667 10.9 44.8°
Reaches altitude 10° 15:57:44 10° 172° (S) 2,768 10.8 45.3°
Maximum altitude 15:59:45 11° 154° (SSE) 2,688 10.9 45.5°
Drops below altitude 10° 16:01:47 10° 136° (SE) 2,818 10.9 45.6°
Sets 16:06:53 0° 105° (ESE) 3,843 11.0 46.1°
